Volver al catálogo

STARLINK-4692

ActivoComunicacionesVLEO
NORAD 53603·PAYLOAD·🇺🇸 United States

Lanzado Aug 28, 2022 desde Cape Canaveral Space Force Station

Loading…

Próximos Pases (próximas 24 horas)

TLE

ActualizadoSource: CelesTrak SupGP

Época: Sep 15, 2026, 02:39 UTC

1 53603C 22104R   26258.11090278  .00015596  00000+0  97763-3 0  2585
2 53603  53.1574 108.3206 0001424  82.5147 103.5946 15.08842440    17

Sigue STARLINK-4692 en tiempo real con AllMySat

Download on the App Store